Location: Pcim
(49.7500°N, 19.9670°E)
Time: 02:31:21
(UTC+02:00)

AO-91 - Pass Details

Date: 28 April 2024
Orbit: 441 x 736 km, 97.6° (Epoch: 23 May)

Event Time Altitude Azimuth Distance (km) Brightness Sun altitude
Rises 21:29:34 0° 28° (NNE) 2,455 ? -13.6°
Reaches altitude 10° 21:32:04 10° 49° (NE) 1,597 ? -13.9°
Enters shadow 21:34:14 18° 89° (E) 1,225 ? -14.2°
